星链-4644 (STARLINK-4644 )

导读

STARLINK-4644是美国太空探索技术公司(SpaceX)星链星座的成员,于2022年9月5日发射入轨,属于星链互联网卫星项目的组网卫星。星链旨在构建全球卫星互联网,该卫星承担低轨通信组网任务,为全球偏远地区等提供互联网接入服务,是SpaceX大规模星座部署中的一颗卫星,助力全球网络覆盖建设。

基本信息
目录编号:
53719
目录名称:
STARLINK-4644
国际标识:
2022-107V
轨道中心:
EARTH
卫星名称:
星链-4644
卫星全名:
星链-4644 (STARLINK-4644 )
卫星状态:
在轨 (已飞行1381 天)
发射日期:
2022-09-05 UTC
国别 :
美国 (US)
星等 :
--
轨道信息
数据来源 国际轨道数据 AOE轨道数据
星历时间 2026-06-17T13:03:03+0800
3小时前
查看轨道信息
2026-06-14T18:00:00+0800
2天前
查看轨道信息
半长轴 6917.894km 6917.897km
偏心率 0.000103 0.0000565
轨道倾角 53.161° 53.162°
近地点辐角 69.552° 76.550°
升交点赤经 136.883° 149.439°
平近点角 290.558° 219.904°
近地点 539.044km 539.369km
远地点 540.47km 540.151km
周期 95.438分钟 95.438分钟
每日圈数 15.088357 15.088348
详细信息
固有亮度:
5
最大亮度:
2.5
卫星平台:
Starlink v1.5
覆盖范围:
全球
运营商:
太空探索技术公司
运营商所在国:
美国
制造商(研发单位):
太空探索技术公司
制造商所在国:
美国
使用方式:
暂无
卫星简介
星链(Starlink)计划是由太空探索技术公司(SpaceX)提出的一个巨型低轨卫星互联网星座项目,计划在2019年至2024年间在太空搭建由约1.2万颗卫星组成的“星链”网络,其中1584颗将部署在地球上空550千米处的近地轨道,并从2020年开始工作。该卫星仍在工作。
2D轨道图
3D轨道图
轨道高度分析图
轨道倾角分析图
轨道综合分析图
查看轨道综合分析图